Location: Auttagershofen
(48.1940°N, 10.0237°E)
Time: 21:48:14
(UTC+00:00)

Lacrosse 5 rocket - Pass Details

Date: 17 April 2026
Orbit: 390 x 471 km, 57.0° (Epoch: 19 May)

Event Time Altitude Azimuth Distance (km) Brightness Sun altitude
Rises 20:34:19 0° 293° (WNW) 2,292 5.7 -20.7°
Reaches altitude 10° 20:36:53 10° 315° (NW) 1,431 4.6 -21.0°
Maximum altitude 20:39:03 17° 358° (N) 1,097 3.4 -21.3°
Enters shadow 20:41:03 11° 39° (NE) 1,392 3.5 -21.5°
